Theta_e
335 335 335 336 336 335 334 334 333 333 332 332 333 332 331 331 330 328 324 325 327 328 329 329 329 330 330 329 326 325 326 324 322 327 329 324 323 325 329 333 334 334 333 332 331 329 329 329 328 328 324 320 317 318 323 330 333 329 329 332 331 328
336 336 335 336 336 335 334 334 334 333 332 331 332 332 331 331 330 327 325 328 328 328 330 329 329 329 329 328 326 325 326 325 326 328 328 327 324 323 327 330 333 334 333 332 330 329 329 328 328 327 325 323 319 319 325 331 333 331 332 331 328 326
336 336 336 336 336 335 334 335 335 334 332 331 332 332 332 331 331 330 329 330 329 328 330 329 327 328 330 329 327 326 325 325 326 328 328 329 327 324 326 329 332 333 333 332 330 329 329 328 328 327 326 324 321 323 329 332 331 331 332 331 327 323
335 335 336 336 336 336 335 335 335 334 333 332 332 332 332 332 332 332 331 331 330 329 329 329 328 328 330 329 327 325 324 324 324 326 328 329 326 322 324 328 330 331 331 331 330 329 329 330 329 328 327 325 324 328 332 332 331 330 330 331 329 323
335 334 335 336 335 334 334 333 334 334 333 333 333 333 332 331 331 332 331 331 331 330 328 328 329 329 330 328 327 324 323 324 325 326 327 328 326 322 323 325 326 327 328 329 329 328 330 332 331 328 327 326 326 330 333 330 330 330 329 331 332 327
335 334 335 335 335 334 333 332 332 333 333 332 332 332 331 330 331 331 330 330 331 331 331 330 328 329 329 328 328 327 324 324 325 325 326 326 326 325 325 324 325 325 323 325 328 329 330 332 332 330 328 328 328 331 332 330 330 331 329 330 331 330
334 334 334 335 335 335 334 333 332 331 331 331 331 330 330 330 331 329 329 331 331 331 333 332 329 330 330 327 327 328 325 325 324 323 324 326 326 326 326 326 327 327 324 325 330 331 330 330 331 331 330 329 330 331 331 330 331 330 330 331 330 331
334 335 335 335 335 333 333 334 332 331 331 331 331 330 330 331 330 329 329 330 329 329 332 332 329 328 328 327 327 327 325 325 324 322 322 325 328 327 327 327 327 329 328 328 331 330 330 330 329 330 330 330 329 329 330 331 331 329 329 331 330 330
333 334 335 336 335 334 334 334 333 332 332 332 331 330 330 330 329 328 328 328 327 328 330 331 329 326 327 328 328 327 327 327 326 325 324 323 326 327 328 328 327 329 330 330 331 330 329 329 328 328 328 329 329 328 329 330 331 330 329 330 330 330
333 333 334 336 336 335 335 334 332 332 332 331 331 330 329 328 327 327 326 326 326 327 328 328 328 326 326 327 328 328 328 330 329 328 328 327 325 325 327 329 328 329 329 329 330 330 329 328 328 327 327 328 329 329 329 329 329 330 330 330 330 330
331 331 333 336 334 333 333 332 331 331 331 330 330 331 331 329 328 327 325 326 327 326 326 326 327 326 325 326 327 326 326 329 330 327 328 329 326 323 325 328 329 330 329 329 330 330 329 330 330 328 328 327 327 328 328 329 328 328 329 330 330 331
328 330 331 332 332 331 329 329 329 329 330 330 331 331 332 331 330 329 326 326 326 326 326 325 326 325 325 326 325 325 325 326 326 325 325 327 325 324 324 325 327 329 329 328 330 331 330 330 332 330 329 328 328 329 327 327 328 328 328 329 329 329
327 329 329 329 330 330 328 328 328 328 329 330 331 332 332 331 330 330 328 327 327 327 326 325 325 324 324 325 325 325 326 326 325 324 325 326 325 325 326 325 325 326 328 328 328 330 330 331 333 332 331 331 329 328 328 327 327 327 328 327 328 329
328 329 329 328 329 330 328 328 328 328 329 330 331 331 331 331 330 330 329 328 327 327 327 326 326 324 324 325 325 325 324 324 325 324 323 323 324 326 327 327 326 325 327 327 325 327 329 331 333 332 331 331 331 329 329 328 327 327 327 327 327 329
328 328 329 329 330 330 329 328 328 328 328 329 329 329 330 330 330 330 328 328 327 326 326 326 326 325 324 324 324 324 323 323 323 323 323 322 323 324 325 326 327 326 326 327 327 328 330 330 331 333 332 328 328 330 329 329 328 327 327 327 327 328
326 327 328 329 329 328 328 327 327 328 327 328 329 329 329 329 329 329 328 327 325 324 324 324 325 324 324 324 322 322 322 322 321 323 324 324 325 325 325 326 326 325 325 325 327 328 329 329 329 332 332 328 325 326 328 330 330 329 328 328 328 328
325 326 327 327 327 326 325 323 324 326 327 327 328 329 329 330 330 329 327 326 325 324 324 324 324 323 324 324 324 322 323 322 320 322 323 324 327 326 326 328 327 326 325 325 326 326 327 327 327 328 331 330 327 325 327 329 329 329 329 328 329 328
325 325 325 325 324 323 322 322 323 324 326 327 328 328 330 331 331 330 328 327 327 326 325 325 324 324 324 325 326 324 324 323 323 324 324 325 326 325 325 327 328 328 327 327 326 325 325 326 327 328 329 329 327 326 327 327 327 328 328 329 329 329
324 324 323 323 322 321 321 321 322 323 325 327 328 328 329 329 329 330 329 327 326 325 325 323 323 325 325 324 325 325 324 324 324 324 325 326 325 324 325 325 325 326 326 327 327 326 325 326 327 328 327 326 326 327 327 326 326 327 327 329 329 329
324 323 321 319 318 319 320 320 322 324 327 328 328 328 328 328 328 328 328 327 323 320 320 319 320 324 325 325 325 325 325 325 325 325 325 325 324 325 325 325 325 324 325 326 326 326 327 327 327 326 326 326 326 327 327 325 324 325 326 328 330 330
322 320 317 315 315 316 317 318 322 326 327 327 327 327 327 327 326 324 324 323 320 318 317 316 316 316 319 324 326 327 326 325 326 326 325 324 324 324 324 325 325 324 325 325 325 325 325 325 326 326 326 326 326 327 327 326 325 324 326 329 330 329
318 315 314 315 315 316 318 319 323 327 327 327 326 325 327 326 322 317 314 313 313 316 322 321 316 314 316 318 321 323 322 322 326 326 326 326 325 324 323 324 324 324 324 324 324 325 324 324 324 324 325 325 326 327 327 326 326 326 327 330 330 329
315 312 316 318 316 319 323 324 326 328 328 328 327 328 327 321 315 310 307 309 306 310 322 325 323 324 322 313 312 316 314 315 322 324 326 327 326 325 324 324 324 324 324 324 324 324 324 325 323 323 324 325 326 327 327 326 326 326 327 329 329 329
312 314 321 322 319 325 327 325 328 329 328 329 325 322 318 311 309 308 306 308 306 308 316 319 322 327 322 309 308 312 311 311 314 317 323 326 326 326 325 325 324 324 324 324 323 323 324 324 324 324 325 326 327 327 327 328 326 325 327 329 329 329
312 317 323 323 323 327 326 324 326 326 326 326 318 315 315 311 310 310 309 309 309 312 314 313 319 324 319 309 306 309 312 313 308 307 314 318 319 321 322 323 323 323 323 323 322 322 322 323 323 325 325 326 327 327 327 327 326 325 326 328 328 328
314 318 319 320 323 323 320 320 320 318 318 317 312 315 321 318 315 314 313 312 311 312 313 313 315 317 314 310 308 308 310 312 310 308 308 309 311 314 319 323 322 318 317 318 318 319 320 322 324 324 324 325 325 325 326 325 324 324 323 324 325 326
314 319 317 319 324 321 317 316 313 313 314 312 315 322 324 321 320 317 312 312 313 311 312 313 312 311 311 310 311 310 309 309 311 311 311 313 314 313 318 322 319 315 313 310 310 311 313 318 322 323 324 325 325 324 324 324 324 323 322 321 321 321
315 320 318 318 325 322 316 314 312 317 320 320 325 327 322 318 317 314 312 313 313 313 313 313 313 313 313 313 312 312 312 311 310 311 316 322 320 316 316 316 315 316 316 311 307 307 307 310 317 320 321 323 323 324 323 323 323 323 323 324 321 320
317 320 319 319 323 320 316 314 313 322 328 327 330 327 318 314 313 312 313 313 313 314 314 314 314 314 314 314 313 313 314 312 310 310 315 320 319 316 317 316 317 315 314 314 312 310 307 307 311 314 316 317 318 319 320 321 321 322 323 324 323 322
323 324 322 319 319 317 318 320 318 325 330 328 329 325 314 311 313 313 313 313 314 314 314 314 314 314 314 314 312 313 314 312 310 309 311 314 314 316 319 318 317 313 313 317 316 313 312 308 308 309 311 316 317 316 318 320 321 323 322 322 323 323
328 330 328 321 318 319 323 327 325 328 330 328 327 321 313 311 313 313 313 313 313 313 314 314 314 314 314 314 313 312 312 310 311 310 312 317 316 318 318 315 315 315 316 318 316 316 317 315 313 311 310 315 318 319 321 321 321 321 321 320 321 322
329 330 330 325 320 322 326 329 330 330 330 329 326 317 312 313 313 313 313 313 313 313 314 314 314 314 314 314 313 312 311 311 311 310 311 316 317 317 315 311 315 318 317 317 316 317 319 317 316 315 313 313 314 316 319 319 318 319 320 321 321 320
329 330 331 328 324 323 326 329 330 330 330 330 325 317 314 313 312 313 313 313 313 313 314 314 314 314 314 314 314 313 312 311 310 309 308 310 311 312 310 308 311 315 317 317 316 315 316 315 315 316 316 315 313 315 317 317 318 319 320 320 320 319
327 328 329 329 328 326 327 328 328 327 329 330 325 320 319 317 313 314 313 313 313 313 313 314 313 314 314 314 313 313 312 310 310 309 308 307 307 309 309 306 305 310 315 315 312 313 314 313 312 313 315 316 316 317 317 316 316 317 318 318 318 318
325 325 325 326 328 329 328 328 328 327 328 329 326 322 323 323 319 316 314 312 313 313 314 313 313 314 313 313 313 312 312 311 310 309 308 306 307 310 310 305 304 308 311 310 310 314 314 313 313 314 314 315 315 315 315 315 315 316 317 317 317 317
326 327 326 326 328 329 328 328 328 328 327 328 326 323 324 325 323 320 316 313 314 315 314 314 313 313 313 312 312 311 312 311 310 309 308 306 307 310 308 303 304 306 308 310 313 314 312 310 312 314 314 314 313 313 314 315 315 315 315 315 316 316
327 327 327 328 329 329 327 325 326 327 327 327 326 323 323 325 324 322 318 316 317 318 315 314 313 313 313 312 311 312 312 311 309 309 309 307 306 308 306 302 304 305 305 309 312 311 308 309 312 314 313 313 314 314 314 314 314 314 314 314 315 315
Wind_Speed
6 5 5 4 4 5 5 4 5 6 8 9 10 11 10 9 9 9 9 8 6 5 4 4 4 4 5 6 6 4 3 4 5 7 6 6 5 4 4 5 7 9 10 8 8 8 8 8 8 8 8 8 9 10 11 11 9 5 6 8 9 7
7 6 6 5 5 5 5 5 6 7 7 9 10 9 9 9 9 10 9 8 7 6 5 5 5 4 6 6 5 3 3 5 5 6 5 5 4 3 3 4 7 9 9 9 9 9 8 8 8 7 7 8 9 10 10 8 7 8 7 9 10 7
7 7 7 6 6 6 5 6 6 6 8 9 10 9 9 9 10 10 8 8 7 7 7 7 6 6 6 6 5 4 4 5 5 5 4 4 4 4 3 4 6 7 8 9 9 8 8 8 8 7 7 7 8 9 7 7 8 9 7 9 8 7
8 8 7 6 6 7 6 6 6 5 7 8 8 8 8 8 7 8 8 7 7 7 7 7 7 7 7 6 5 5 6 5 4 4 4 4 4 4 5 5 6 6 7 8 8 8 8 8 8 9 8 7 7 7 6 8 9 8 7 10 9 7
8 8 8 7 6 7 6 6 5 4 5 5 5 6 5 5 5 6 6 6 5 6 7 7 7 7 7 6 5 5 5 4 4 4 4 4 5 4 5 7 7 8 8 7 7 7 7 9 9 9 10 10 8 6 6 8 10 9 9 12 11 8
8 9 8 7 7 6 6 5 4 3 3 4 3 5 4 4 5 5 5 5 4 5 6 6 7 8 7 5 5 5 5 5 5 5 4 5 6 5 5 6 8 8 8 8 7 6 5 8 10 9 9 9 7 6 7 7 8 9 10 13 13 11
9 9 9 8 6 6 6 5 5 4 3 3 2 3 3 4 4 4 5 4 3 3 4 4 6 8 7 5 6 6 6 6 6 5 5 5 6 7 7 7 7 8 8 8 9 9 7 6 9 10 10 9 8 10 10 8 7 8 10 12 13 12
8 9 9 8 6 6 5 5 6 4 3 4 3 4 3 2 1 2 2 3 3 2 3 2 3 6 6 5 7 6 6 7 6 5 5 6 6 7 8 7 7 7 8 8 9 10 9 9 11 11 11 11 10 12 10 10 11 10 10 12 12 11
9 8 9 8 7 7 6 5 4 3 5 5 3 3 2 1 2 2 1 2 3 1 2 3 3 5 6 5 7 6 6 7 6 5 4 4 5 6 8 7 7 7 7 8 9 10 11 12 13 11 12 11 10 11 10 11 12 10 11 14 13 12
9 9 8 8 7 7 6 4 4 4 5 5 4 4 4 2 2 1 1 2 3 2 2 3 2 4 6 6 8 7 6 5 5 5 3 2 4 6 7 8 9 8 8 8 9 12 13 12 11 11 11 11 10 11 10 11 13 11 11 13 14 13
9 9 9 8 6 6 6 5 5 5 5 4 5 5 5 4 2 1 2 1 1 2 3 4 2 3 5 7 8 8 7 5 4 5 5 4 5 7 7 8 9 9 8 8 8 11 14 13 12 13 13 13 12 11 12 12 12 12 11 12 14 13
8 9 8 7 6 6 6 5 5 4 4 3 3 4 4 3 2 1 2 2 2 3 3 3 2 3 5 7 8 7 6 6 6 6 6 7 8 9 9 8 10 10 9 9 8 9 13 15 13 16 17 16 15 13 13 14 12 13 12 12 14 15
8 8 8 7 7 6 6 5 3 3 3 3 2 2 2 2 3 3 3 3 3 4 4 3 4 4 5 6 6 5 4 5 6 5 5 8 9 10 10 9 10 11 11 11 10 10 13 15 13 15 18 17 18 16 15 16 15 16 15 14 12 14
8 8 8 7 6 6 5 3 2 2 2 2 1 1 2 3 3 4 4 5 5 5 4 4 4 5 6 6 5 3 3 3 3 3 4 6 7 7 7 9 10 11 11 12 12 14 17 18 15 14 16 16 17 18 17 17 17 17 17 17 15 13
8 8 8 7 6 6 4 3 3 3 3 3 3 4 4 3 3 4 5 5 6 6 5 4 3 3 4 5 5 4 4 2 1 2 3 4 5 5 4 5 6 9 10 11 12 14 17 19 16 12 14 15 15 16 18 19 19 19 18 19 19 15
8 9 8 7 7 6 6 5 5 6 5 5 6 6 6 6 5 6 6 6 7 8 6 6 5 3 2 2 3 3 4 4 3 3 2 2 3 3 2 1 2 6 7 8 10 11 13 16 16 12 11 12 13 15 16 18 19 20 19 20 21 19
9 9 8 8 8 7 7 7 7 7 7 6 7 7 7 7 5 5 6 7 8 8 8 8 8 6 4 3 3 4 2 3 4 3 2 2 2 1 1 1 3 5 5 7 8 9 10 11 13 14 13 11 12 13 14 15 16 18 19 20 20 19
10 10 9 8 8 8 8 7 7 8 7 6 6 6 7 6 4 4 5 6 6 6 7 8 9 8 6 5 5 4 3 1 1 2 2 2 2 2 1 1 2 3 4 6 7 7 9 10 11 12 13 11 12 12 13 13 13 14 15 16 15 14
12 11 10 9 8 9 9 8 8 7 6 6 5 5 5 4 4 4 3 4 4 4 5 6 7 7 7 6 6 6 5 4 3 2 1 1 1 2 2 2 3 3 4 5 5 5 7 9 11 11 11 12 11 11 12 13 12 12 12 12 13 11
13 12 11 10 9 10 10 9 8 7 7 6 5 5 5 4 4 4 4 3 3 3 4 4 4 4 5 5 6 6 6 6 5 4 3 3 2 1 1 2 2 3 3 4 3 4 5 6 8 9 10 11 11 9 11 12 12 11 10 11 12 11
15 14 13 13 13 13 12 10 9 8 8 7 5 6 6 4 3 3 3 1 1 3 4 3 3 2 2 3 3 3 3 4 4 4 5 4 3 3 2 2 1 2 3 5 4 5 6 6 7 7 7 9 9 9 9 10 11 11 10 10 11 10
16 16 16 15 16 14 12 10 9 8 8 6 5 5 5 5 4 2 2 1 0 3 4 5 6 5 2 1 1 1 1 1 2 3 5 5 5 4 4 3 2 2 2 4 5 5 6 7 8 8 8 8 8 8 9 9 10 10 8 9 10 10
18 18 17 15 14 13 11 9 9 8 8 7 8 8 6 5 3 2 1 1 1 4 5 3 5 4 2 1 1 1 0 0 1 1 3 4 4 4 4 3 3 3 3 3 3 4 5 5 7 8 8 8 7 8 9 9 9 8 7 9 10 9
20 20 17 15 14 13 12 11 11 11 10 9 10 10 7 4 4 3 3 3 3 5 6 6 6 2 2 2 3 2 2 1 0 1 1 2 2 3 3 4 4 3 3 3 4 4 4 4 4 4 5 6 5 6 7 7 8 7 6 8 10 9
21 19 18 17 16 15 14 14 14 14 13 10 9 9 7 6 5 4 5 4 5 5 5 5 6 3 1 3 4 3 3 3 2 0 1 2 2 1 2 3 4 4 4 4 3 2 2 3 4 4 2 2 2 3 5 8 10 9 6 7 10 11
22 19 19 19 17 16 15 14 14 14 13 12 10 10 8 7 6 5 5 5 5 5 5 4 5 3 2 4 5 4 4 4 5 4 2 2 2 1 3 1 5 6 6 7 6 4 3 2 2 3 2 1 1 2 4 7 9 9 8 8 10 11
21 19 20 20 18 17 15 14 14 11 11 11 11 11 10 9 9 7 5 5 5 5 5 5 4 4 4 5 5 5 4 4 4 5 6 6 5 2 1 2 6 6 5 6 6 5 6 4 1 2 2 1 1 1 3 4 6 10 11 10 10 10
21 20 20 20 18 17 17 16 14 11 10 11 11 12 13 12 11 9 7 7 6 5 5 4 4 5 5 6 6 6 6 5 4 4 5 6 8 5 3 4 5 5 5 5 4 3 4 5 3 3 3 3 2 3 3 4 6 9 11 13 14 11
21 19 20 21 19 18 18 16 14 14 12 12 14 14 14 13 12 11 10 8 7 6 5 4 4 4 5 5 6 6 7 7 6 3 2 3 8 6 4 4 4 5 5 5 4 3 3 4 6 7 6 5 5 5 4 4 5 7 9 12 13 12
20 19 19 20 19 18 18 16 15 16 15 15 17 16 14 14 13 12 11 10 9 8 6 4 3 3 4 4 5 5 5 7 8 5 1 3 6 4 4 4 5 6 5 5 6 6 5 4 3 5 4 3 3 2 3 4 4 5 7 8 9 9
17 17 17 18 20 19 18 17 17 16 16 17 18 17 16 16 15 14 13 12 10 9 7 5 4 2 2 3 4 4 4 6 7 6 4 4 4 3 5 6 5 6 5 4 6 7 6 6 5 4 3 3 3 2 3 3 4 6 7 7 9 10
16 15 15 16 18 19 18 17 17 16 16 17 19 18 18 18 17 16 14 13 12 11 9 7 5 3 1 2 3 4 5 6 7 6 4 4 3 3 7 6 4 5 7 6 5 4 5 5 5 6 5 4 4 3 3 2 3 6 6 7 9 10
14 14 15 14 15 17 18 16 15 16 16 18 19 19 19 19 18 17 16 15 14 12 10 9 7 5 3 1 2 4 6 7 8 7 4 3 4 6 7 5 2 3 5 7 6 5 6 6 6 6 6 6 4 3 4 5 6 7 7 6 6 8
15 15 16 14 13 14 15 15 15 15 16 18 19 19 19 18 18 18 18 17 15 13 12 10 8 6 4 2 1 3 4 5 6 6 5 3 3 5 7 6 5 3 4 8 9 8 8 8 7 5 5 7 6 6 6 6 6 5 5 6 6 8
16 17 16 15 15 16 17 16 16 15 16 17 19 19 18 17 18 19 19 18 16 15 13 11 9 8 5 3 1 1 2 3 4 5 5 4 3 4 7 8 7 5 6 8 7 7 8 8 7 6 5 6 8 8 7 6 5 4 6 7 6 6
17 17 18 18 18 20 19 17 15 16 16 16 17 19 18 17 18 20 20 19 18 16 15 13 11 9 6 4 3 2 2 2 4 5 5 5 3 4 7 8 7 6 7 7 6 7 9 8 6 5 5 6 7 7 6 6 6 5 7 10 9 6
17 17 18 19 21 23 21 19 18 17 16 16 16 18 19 18 20 21 20 20 19 19 17 16 13 10 8 6 4 3 2 1 2 4 4 4 4 5 8 8 7 7 7 6 7 9 9 7 5 5 7 7 6 6 6 7 7 7 9 12 12 9
Wind_Direction
95 100 95 95 104 103 109 118 133 150 158 169 179 181 185 190 189 187 185 185 191 201 207 206 197 188 198 207 215 226 226 224 190 166 162 154 164 181 173 174 187 197 195 189 181 174 174 167 165 169 167 173 172 163 153 135 126 154 193 216 223 223
98 105 99 105 113 105 109 125 133 144 150 162 172 178 182 182 182 181 187 189 188 201 215 218 209 204 210 211 218 221 214 216 190 166 174 166 165 189 189 182 192 198 198 197 190 189 188 178 177 175 173 179 173 170 162 147 159 166 188 237 227 213
110 110 106 113 112 104 109 123 134 141 144 156 166 173 175 175 179 176 185 196 194 204 214 217 215 213 213 207 210 205 198 215 198 164 178 191 173 176 194 191 195 200 200 202 202 205 208 198 193 192 189 187 182 179 169 175 185 172 195 248 234 213
114 108 109 118 114 108 104 115 127 130 146 159 165 172 173 175 181 175 189 206 203 205 204 205 205 207 208 201 201 199 195 207 204 171 172 204 203 185 186 190 194 205 208 210 214 220 230 224 214 210 204 204 202 186 187 198 185 171 207 240 243 231
117 110 113 121 116 109 99 109 118 117 145 150 158 175 180 185 188 188 203 211 211 214 205 196 196 201 205 202 199 201 198 194 193 191 193 219 235 215 198 199 199 202 208 214 220 226 230 227 232 233 216 218 215 186 209 217 181 172 213 235 248 248
116 113 112 114 114 109 103 113 116 107 130 129 159 180 186 198 194 201 210 211 219 220 206 193 200 204 201 209 214 203 200 196 193 200 216 239 250 246 231 222 213 206 201 201 212 231 237 216 225 247 241 227 217 200 220 225 182 181 220 235 242 253
114 114 111 109 110 108 105 112 120 122 116 118 160 162 173 198 201 207 209 223 241 233 224 203 204 209 200 212 226 216 210 207 203 204 218 240 250 253 251 242 232 225 211 200 199 218 248 240 223 237 247 239 226 220 216 218 212 203 227 239 240 254
115 115 113 107 102 100 100 108 114 116 103 98 126 143 158 190 234 236 215 250 275 269 252 215 198 225 216 214 226 228 229 225 214 210 224 238 244 247 251 249 238 233 226 220 213 213 230 244 240 232 235 247 242 227 211 208 218 216 234 247 247 255
115 113 110 102 98 96 98 105 92 81 93 89 102 128 121 87 345 338 283 279 299 324 261 217 203 239 232 221 225 226 237 244 236 224 226 232 240 248 246 244 240 237 228 228 230 219 213 228 245 241 226 235 243 234 223 213 211 207 228 246 250 254
122 119 111 103 103 104 103 102 80 74 81 76 88 95 75 64 52 25 263 298 321 319 286 264 251 247 240 233 235 237 244 258 262 252 251 240 249 259 244 238 245 241 227 227 231 223 213 214 234 242 226 219 230 239 236 228 221 209 215 240 250 252
128 122 116 111 112 112 108 99 88 84 68 61 84 87 74 62 60 70 262 288 319 292 285 281 274 250 243 242 248 255 256 272 292 270 274 285 272 268 250 236 245 242 234 235 234 232 228 218 214 222 221 214 220 229 227 231 236 228 224 238 251 253
125 122 119 116 114 107 103 100 91 84 72 63 69 68 77 68 46 31 302 305 303 300 300 274 254 254 250 251 261 266 264 276 279 260 267 281 279 275 262 248 248 246 249 249 240 240 240 234 223 218 217 213 214 212 211 219 222 225 229 236 251 259
126 124 122 118 113 103 101 103 95 80 77 75 53 22 27 31 21 25 354 337 325 316 312 286 264 261 253 253 269 281 287 289 271 259 271 273 274 276 272 266 258 250 257 259 247 243 246 247 243 231 224 220 220 215 207 211 210 212 217 218 235 255
129 126 124 123 120 114 113 109 99 75 68 76 69 29 20 15 9 15 6 351 349 349 336 311 283 263 261 264 274 288 302 318 284 269 280 267 261 269 282 284 263 247 257 265 255 252 256 260 259 244 234 230 226 223 217 217 216 215 216 213 217 231
132 128 126 127 124 123 127 117 106 92 76 79 83 79 75 72 52 35 30 17 14 19 11 1 349 295 279 279 276 278 269 269 304 293 277 254 244 249 289 308 267 243 248 261 265 263 265 270 271 254 241 242 240 234 231 229 227 225 222 220 224 227
136 130 131 136 132 128 128 118 112 105 91 86 87 87 83 86 75 57 60 53 46 43 39 43 36 19 6 345 316 311 278 244 253 289 300 249 238 239 250 9 259 251 248 256 267 266 268 279 282 275 263 260 256 249 244 238 236 234 230 229 233 236
142 139 141 142 136 129 123 114 108 106 97 86 85 84 79 78 65 57 70 66 61 57 50 50 45 41 44 33 17 5 331 239 226 242 261 245 238 230 178 149 215 243 252 256 264 267 274 287 286 285 290 278 260 257 254 246 242 241 239 239 240 243
151 149 148 144 139 132 125 118 109 106 103 98 93 91 91 92 82 67 70 69 66 58 51 51 49 48 46 42 41 38 35 71 171 237 257 249 279 303 293 282 253 255 270 269 271 281 289 286 276 280 290 278 258 257 258 255 250 248 247 245 246 252
158 158 154 149 144 137 135 129 119 114 106 99 91 87 91 100 102 88 69 68 65 51 43 37 41 50 48 46 49 49 44 42 38 5 339 322 323 302 277 275 282 294 298 287 282 288 290 280 273 275 282 275 264 262 261 259 256 254 253 246 242 248
166 162 154 150 149 148 146 139 130 121 109 103 100 95 87 77 85 90 80 62 47 36 30 20 18 28 39 46 44 43 38 29 23 19 11 356 1 3 302 278 275 286 277 277 280 275 277 275 273 277 278 270 265 271 271 264 260 260 256 245 238 236
169 160 155 154 154 155 152 147 142 134 132 136 138 134 131 140 148 134 125 92 51 45 31 19 10 359 18 51 49 46 43 34 24 15 18 18 20 23 1 337 293 280 264 272 274 266 270 273 274 277 276 267 265 270 271 269 264 257 254 250 243 240
164 159 160 158 155 153 150 148 143 135 141 143 133 143 163 185 207 202 190 229 134 85 58 21 19 30 30 38 98 110 66 69 54 18 19 32 37 32 24 17 347 319 298 288 284 281 278 275 276 281 285 284 282 274 268 274 268 254 252 253 252 254
164 163 163 161 154 152 154 151 148 147 155 161 159 169 190 199 197 200 181 185 151 114 112 76 43 47 7 355 107 122 131 164 113 55 20 23 31 32 25 18 16 17 8 349 342 329 307 290 285 286 288 287 290 293 292 287 264 245 244 246 246 241
167 167 165 166 160 160 167 164 164 167 168 179 186 187 194 180 156 158 148 135 128 117 125 133 118 122 294 15 84 93 69 56 184 147 58 357 358 13 9 356 353 352 340 339 2 13 1 336 314 301 291 279 279 289 297 298 280 261 251 254 250 233
171 171 170 172 169 172 178 175 178 178 174 187 193 183 179 167 156 151 138 130 126 119 116 122 125 131 349 29 51 53 49 24 349 326 215 258 286 319 30 3 320 299 292 294 309 349 11 353 330 327 319 266 263 259 269 296 302 288 263 258 256 247
175 176 176 174 175 181 184 184 188 187 184 190 184 173 172 163 161 159 145 134 123 122 118 113 118 113 55 35 35 36 31 5 358 358 334 306 300 318 77 15 281 280 281 277 280 284 292 316 346 348 343 216 225 267 279 303 313 307 295 275 260 255
182 182 180 178 180 183 188 193 194 192 191 187 177 175 178 172 173 175 161 146 132 123 116 107 103 91 68 51 41 28 21 10 355 355 4 357 331 327 105 275 291 307 302 282 279 274 270 269 292 359 340 313 324 309 299 313 314 311 311 302 288 282
189 189 185 184 185 184 192 197 189 186 188 183 184 190 190 187 185 180 172 163 151 138 123 109 93 77 58 48 37 19 17 17 356 11 30 352 318 320 314 299 313 323 319 315 305 284 264 252 234 240 255 266 276 265 272 304 311 308 305 303 303 305
193 195 191 190 190 189 196 199 187 184 187 187 201 209 202 194 190 183 179 176 167 157 145 126 100 74 54 39 28 15 8 5 357 15 89 276 293 317 331 328 328 313 326 344 335 321 284 248 234 239 244 253 255 246 248 264 290 292 282 285 297 307
193 196 197 196 195 193 197 200 193 190 188 192 209 215 205 196 193 188 186 185 178 171 164 150 129 91 62 38 26 17 354 351 354 357 4 293 306 334 322 307 314 322 346 352 339 345 335 321 290 256 248 264 271 271 274 254 242 260 266 270 288 298
195 197 201 203 200 196 199 201 200 197 191 200 214 212 203 200 196 194 193 190 185 180 178 170 155 121 67 35 22 17 349 344 351 358 9 353 354 356 308 312 343 346 346 335 342 356 343 343 340 301 272 241 227 215 261 257 254 282 294 292 290 286
204 201 206 211 206 201 204 205 204 202 196 206 217 211 206 205 200 200 199 193 192 190 189 184 175 176 154 22 9 7 358 349 345 348 350 332 333 308 299 321 11 350 334 328 337 337 312 317 328 319 312 279 246 228 230 243 276 280 279 285 294 296
220 212 213 217 215 211 212 212 212 208 204 212 216 209 209 210 203 204 203 199 200 198 195 195 192 193 209 262 359 4 359 348 341 342 337 309 301 301 311 327 339 328 325 314 311 305 295 297 299 298 305 313 312 276 245 237 250 255 250 265 296 304
232 224 221 223 226 225 222 220 223 219 213 217 215 207 209 211 206 205 207 205 205 204 201 202 202 201 210 226 315 4 358 344 338 345 347 342 322 312 327 343 336 323 296 293 307 314 307 308 308 301 301 312 309 286 274 262 258 269 275 283 298 300
234 225 222 224 228 233 231 226 229 226 221 224 220 209 206 209 208 208 209 207 205 207 204 203 207 208 212 219 247 309 337 344 340 350 355 1 11 325 323 339 336 318 302 306 320 314 305 310 313 307 295 290 288 289 303 306 293 298 295 279 270 283
239 229 223 220 220 226 231 230 231 230 228 229 228 216 205 205 211 211 212 208 204 206 206 206 209 208 210 215 216 249 295 352 347 355 360 360 6 316 313 331 332 317 317 324 315 290 291 299 299 295 286 279 282 280 284 286 276 278 286 273 259 266
244 237 231 225 222 225 229 233 232 229 230 234 235 225 210 207 213 213 211 206 202 205 208 208 209 205 206 212 208 219 253 337 337 345 355 355 348 317 318 334 335 321 318 309 295 293 299 306 297 281 266 259 264 263 258 260 259 261 273 272 261 249